This is the latest recevied weather packets stored in our database for station/object K8RRT. If no packets are shown the sender has not sent any weather packets the latest 10 day(s).
| Time | Temp. | Humidity | Pressure | Rain* | Wind** | Luminosity | Snow |
|---|---|---|---|---|---|---|---|
| 1777923563 | 21.67° C | 59% | 1006.1 hPa | 0 mm | - | 407 W/m² | - |
| 1777923260 | 21.11° C | 62% | 1006.1 hPa | 0 mm | - | 764 W/m² | - |
| 1777922959 | 20.56° C | 62% | 1006.1 hPa | 0 mm | - | 274 W/m² | - |
| 1777922655 | 21.11° C | 66% | 1006.4 hPa | 0 mm | - | 272 W/m² | - |
| 1777922355 | 20.56° C | 66% | 1006.5 hPa | 0 mm | - | 861 W/m² | - |
| 1777922052 | 20° C | 70% | 1006.4 hPa | 0 mm | - | 512 W/m² | - |
| 1777921747 | 18.89° C | 72% | 1006.5 hPa | 0 mm | - | 647 W/m² | - |
| 1777921443 | 18.33° C | 72% | 1006.7 hPa | 0 mm | - | 344 W/m² | - |
| 1777921140 | 18.33° C | 71% | 1006.4 hPa | 0 mm | - | 232 W/m² | - |
| 1777920837 | 18.33° C | 71% | 1006.2 hPa | 0 mm | - | 158 W/m² | - |
| 1777920533 | 18.89° C | 68% | 1006.8 hPa | 0 mm | - | 87 W/m² | - |
| 1777920229 | 19.44° C | 66% | 1007.1 hPa | 0 mm | - | 72 W/m² | - |
| 1777919925 | 20.56° C | 60% | 1008 hPa | 0 mm | - | 130 W/m² | - |
| 1777919623 | 21.11° C | 58% | 1007.3 hPa | 0 mm | - | 98 W/m² | - |
| 1777919320 | 21.67° C | 55% | 1007.2 hPa | 0 mm | - | 123 W/m² | - |
| 1777919018 | 21.67° C | 55% | 1006.9 hPa | 0 mm | - | 355 W/m² | - |
| 1777918714 | 22.22° C | 55% | 1006.9 hPa | 0 mm | - | 412 W/m² | - |
| 1777918412 | 22.78° C | 55% | 1007 hPa | 0 mm | - | 770 W/m² | - |
| 1777918110 | 21.67° C | 54% | 1006.9 hPa | 0 mm | - | 631 W/m² | - |
| 1777917808 | 21.67° C | 54% | 1006.8 hPa | 0 mm | - | 586 W/m² | - |
| 1777917506 | 22.78° C | 56% | 1006.4 hPa | 0 mm | - | 462 W/m² | - |
| 1777917203 | 22.78° C | 55% | 1006.8 hPa | 0 mm | - | 885 W/m² | - |
| 1777916901 | 21.67° C | 54% | 1006.7 hPa | 0 mm | - | 606 W/m² | - |
| 1777916598 | 21.67° C | 55% | 1006.6 hPa | 0 mm | - | 805 W/m² | - |
| 1777916295 | 21.67° C | 57% | 1006.6 hPa | 0 mm | - | 865 W/m² | - |
* Rain latest hour (hover to see other rain measurements)
** Current wind speed in m/s (hover to see current wind gust speed)